Location: *
(37.9500°N, 27.3666°E)
Time: 13:49:48
(UTC+00:00)

NOAA 6 - Pass Details

Date: 24 October 2021
Orbit: 771 x 787 km, 98.7° (Epoch: 05 December)

Event Time Altitude Azimuth Distance (km) Brightness Sun altitude
Rises 15:45:32 0° 170° (S) 3,260 7.3 -5.6°
Reaches altitude 10° 15:47:50 10° 173° (S) 2,337 6.6 -6.0°
Maximum altitude 15:52:59 73° 257° (WSW) 826 4.4 -7.0°
Drops below altitude 10° 15:58:11 10° 343° (NNW) 2,355 6.6 -8.0°
Sets 16:00:32 0° 345° (NNW) 3,288 7.4 -8.5°
